IK1YHX Weather Reports


Display with metric or nautical units.
time (UTC)temp
F
wind
direction
speed
MPH
gust
MPH
rain 1hr
in
rain 24hr
in
rain mn
in
humidity
%
barometer
mb
20260507223537 55 331 4.0 5.0 0.00 0.00 0.00 77 1020.2
20260507222544 56 283 2.0 3.0 0.00 0.00 0.00 77 1020.3
20260507221517 56 247 3.0 3.0 0.00 0.00 0.00 76 1020.1
20260507220548 56 248 3.0 4.0 0.00 0.00 0.00 76 1020.0
20260507215541 56 214 2.0 4.0 0.00 0.00 0.00 76 1020.1
20260507214524 56 260 2.0 3.0 0.00 0.00 0.00 76 1020.0
20260507213524 56 250 1.0 2.0 0.00 0.00 0.00 76 1019.9
20260507212527 56 252 2.0 2.0 0.00 0.00 0.00 75 1019.9
20260507211533 56 266 4.0 5.0 0.00 0.00 0.00 75 1019.8
20260507210557 56 181 2.0 2.0 0.00 0.00 0.00 75 1019.8
20260507205541 56 265 3.0 3.0 0.00 0.00 0.00 75 1019.9
20260507204542 57 240 1.0 1.0 0.00 0.00 0.00 74 1019.9
20260507203543 57 229 2.0 2.0 0.00 0.00 0.00 74 1019.8
20260507202517 56 293 1.0 2.0 0.00 0.00 0.00 74 1019.7
20260507201543 57 199 1.0 2.0 0.00 0.00 0.00 74 1019.5
20260507200517 57 300 3.0 5.0 0.00 0.00 0.00 74 1019.4
20260507195544 56 355 2.0 2.0 0.00 0.00 0.00 75 1019.3
20260507194522 57 219 1.0 2.0 0.00 0.00 0.00 75 1019.1
20260507193518 57 334 2.0 2.0 0.00 0.00 0.00 74 1019.0
20260507192547 57 225 1.0 4.0 0.00 0.00 0.00 74 1019.0
20260507191538 57 252 1.0 2.0 0.00 0.00 0.00 74 1018.7
20260507190523 57 271 1.0 2.0 0.00 0.00 0.00 73 1018.7
20260507185525 58 325 2.0 3.0 0.00 0.00 0.00 73 1018.7
20260507184531 58 270 0.0 2.0 0.00 0.00 0.00 72 1018.6
20260507183524 58 264 2.0 3.0 0.00 0.00 0.00 71 1018.4
20260507182526 59 248 1.0 2.0 0.00 0.00 0.00 70 1018.4
20260507181527 59 203 1.0 2.0 0.00 0.00 0.00 69 1018.4
20260507180531 60 250 2.0 2.0 0.00 0.00 0.00 68 1018.2
20260507175530 60 248 1.0 2.0 0.00 0.00 0.00 67 1018.1
20260507174535 61 0 0.0 2.0 0.00 0.00 0.00 66 1018.1
20260507173538 62 0.0 0.0 0.00 0.00 0.00 65 1018.1
20260507172539 63 0.0 0.0 0.00 0.00 0.00 63 1018.1
20260507171536 63 0.0 0.0 0.00 0.00 0.00 63 1017.9
20260507170538 64 0.0 0.0 0.00 0.00 0.00 62 1018.0
20260507165535 64 0.0 0.0 0.00 0.00 0.00 62 1017.9
20260507164530 64 23 1.0 1.0 0.00 0.00 0.00 62 1017.9
20260507163528 64 0.0 0.0 0.00 0.00 0.00 61 1017.9
20260507162545 64 23 1.0 2.0 0.00 0.00 0.00 61 1017.8
20260507161527 64 0.0 0.0 0.00 0.00 0.00 60 1017.7
20260507160525 64 23 1.0 2.0 0.00 0.00 0.00 59 1017.8
20260507155525 65 23 0.0 1.0 0.00 0.00 0.00 59 1017.6
20260507154528 65 23 1.0 1.0 0.00 0.00 0.00 59 1017.6
20260507153530 65 23 2.0 2.0 0.00 0.00 0.00 58 1017.6
20260507152528 65 23 2.0 4.0 0.00 0.00 0.00 57 1017.6
20260507151556 67 57 2.0 2.0 0.00 0.00 0.00 56 1017.7
20260507150605 68 40 2.0 3.0 0.00 0.00 0.00 56 1017.6
20260507145517 69 23 2.0 3.0 0.00 0.00 0.00 56 1017.6
20260507144525 69 23 4.0 4.0 0.00 0.00 0.00 55 1017.8
20260507143527 68 43 2.0 2.0 0.00 0.00 0.00 57 1017.7
20260507142527 68 58 1.0 2.0 0.00 0.00 0.00 57 1017.8
20260507141530 68 23 1.0 2.0 0.00 0.00 0.00 56 1018.0
20260507140530 68 74 3.0 4.0 0.00 0.00 0.00 58 1018.1
20260507135534 67 72 1.0 2.0 0.00 0.00 0.00 60 1018.0
20260507134536 65 30 2.0 2.0 0.00 0.00 0.00 60 1018.2
20260507133537 65 23 3.0 6.0 0.00 0.00 0.00 60 1018.2
20260507132538 66 23 1.0 1.0 0.00 0.00 0.00 59 1018.2
20260507131539 67 23 2.0 4.0 0.00 0.00 0.00 59 1018.2
20260507130539 67 67 1.0 2.0 0.00 0.00 0.00 59 1018.3
20260507125540 68 48 2.0 2.0 0.00 0.00 0.00 58 1018.3
20260507124540 69 114 1.0 2.0 0.00 0.00 0.00 59 1018.4
20260507123539 68 57 1.0 2.0 0.00 0.00 0.00 60 1018.5
20260507122543 67 79 3.0 4.0 0.00 0.00 0.00 59 1018.5
20260507121548 68 23 1.0 2.0 0.00 0.00 0.00 59 1018.6
20260507120543 67 23 1.0 3.0 0.00 0.00 0.00 59 1018.6
20260507115518 68 23 2.0 3.0 0.00 0.00 0.00 58 1018.7
20260507114540 69 37 3.0 5.0 0.00 0.00 0.00 60 1018.9
20260507113544 67 0 1.0 3.0 0.00 0.00 0.00 64 1018.9
20260507112543 65 23 1.0 2.0 0.00 0.00 0.00 66 1019.0
20260507111543 64 23 5.0 8.0 0.00 0.00 0.00 64 1019.1
20260507110607 65 18 2.0 5.0 0.00 0.00 0.00 64 1019.2
20260507105540 65 51 3.0 3.0 0.00 0.00 0.00 63 1019.3
20260507104545 67 23 4.0 5.0 0.00 0.00 0.00 64 1019.2
20260507103545 66 80 3.0 4.0 0.00 0.00 0.00 65 1019.4
20260507102520 65 293 1.0 2.0 0.00 0.00 0.00 66 1019.4
20260507101517 65 23 3.0 4.0 0.00 0.00 0.00 66 1019.4
20260507100607 65 23 4.0 5.0 0.00 0.00 0.00 68 1019.4
20260507095518 64 23 2.0 3.0 0.00 0.00 0.00 69 1019.4
20260507094524 63 23 7.0 8.0 0.00 0.00 0.00 70 1019.3
20260507093528 63 75 5.0 5.0 0.00 0.00 0.00 70 1019.2
20260507092524 63 23 3.0 5.0 0.00 0.00 0.00 70 1019.1
20260507091542 62 23 3.0 3.0 0.00 0.00 0.00 71 1019.1
20260507090522 62 23 3.0 4.0 0.00 0.00 0.00 71 1019.1
20260507085542 62 23 4.0 6.0 0.00 0.00 0.00 72 1019.1
20260507084523 62 47 3.0 4.0 0.00 0.00 0.00 74 1018.9
20260507083545 61 71 4.0 4.0 0.00 0.00 0.00 74 1019.0
20260507082529 61 38 2.0 4.0 0.00 0.00 0.00 75 1019.0
20260507081531 60 23 2.0 2.0 0.00 0.00 0.00 76 1019.1
20260507080542 59 66 1.0 2.0 0.00 0.00 0.00 76 1019.1
20260507075515 58 158 0.0 2.0 0.00 0.00 0.00 77 1019.1
20260507074518 56 97 1.0 2.0 0.00 0.00 0.00 80 1019.1
20260507073547 53 77 1.0 2.0 0.00 0.00 0.00 78 1019.1
20260507072539 52 225 1.0 3.0 0.00 0.00 0.00 79 1019.1
20260507071544 51 210 3.0 4.0 0.00 0.00 0.00 79 1019.0
20260507070515 51 233 2.0 2.0 0.00 0.00 0.00 79 1019.0
20260507065548 -1 246 3.0 6.0 0.00 0.00 0.00 10 1018.8
20260507064515 -1 220 3.0 4.0 0.00 0.00 0.00 10 1018.9
20260507063517 -1 203 3.0 3.0 0.00 0.00 0.00 10 1018.8
20260507062519 -1 236 2.0 3.0 0.00 0.00 0.00 10 1018.8
20260507061522 -1 265 1.0 2.0 0.00 0.00 0.00 10 1018.9
20260507060548 -1 261 1.0 3.0 0.00 0.00 0.00 10 1018.8
20260507055517 -1 270 3.0 4.0 0.00 0.00 0.00 10 1018.6
20260507054517 -1 261 1.0 2.0 0.00 0.02 0.00 10 1018.6
20260507053521 -1 203 1.0 2.0 0.00 0.04 0.00 10 1018.5
20260507052518 -1 239 2.0 3.0 0.00 0.04 0.00 10 1018.4
20260507051519 -1 236 2.0 4.0 0.00 0.04 0.00 10 1018.3
20260507050523 -1 242 2.0 3.0 0.00 0.06 0.00 10 1018.2
20260507045529 -1 256 4.0 5.0 0.00 0.10 0.00 10 1018.0
20260507044532 -1 208 2.0 2.0 0.00 0.12 0.00 10 1017.9
20260507043538 -1 250 3.0 4.0 0.00 0.16 0.00 10 1017.7
20260507042535 -1 240 6.0 6.0 0.00 0.29 0.00 10 1017.5
20260507041533 -1 308 3.0 3.0 0.00 0.39 0.00 10 1017.5
20260507040536 -1 242 5.0 5.0 0.00 0.41 0.00 10 1017.4
20260507035602 -1 232 5.0 6.0 0.00 0.43 0.00 10 1017.4
20260507034538 -1 328 4.0 5.0 0.00 0.45 0.00 10 1017.3
20260507033536 -1 270 3.0 3.0 0.00 0.49 0.00 10 1017.2
20260507032602 -1 257 2.0 2.0 0.00 0.51 0.00 10 1017.2
20260507031540 -1 270 2.0 2.0 0.00 0.51 0.00 10 1017.2
20260507030542 -1 270 2.0 2.0 0.00 0.51 0.00 10 1017.2
20260507025542 -1 277 5.0 8.0 0.00 0.51 0.00 10 1017.2
20260507024517 -1 232 3.0 4.0 0.00 0.51 0.00 10 1017.1
20260507023609 -1 214 2.0 2.0 0.00 0.51 0.00 10 1017.2
20260507022516 -1 225 2.0 2.0 0.00 0.51 0.00 10 1017.2
20260507021547 -1 261 3.0 4.0 0.00 0.51 0.00 10 1017.4
20260507020544 -1 225 2.0 2.0 0.00 0.51 0.00 10 1017.5
20260507015543 -1 229 2.0 5.0 0.00 0.51 0.00 10 1017.4
20260507014519 -1 266 2.0 3.0 0.00 0.51 0.00 10 1017.2
20260507013520 -1 270 3.0 3.0 0.00 0.51 0.00 10 1017.3
20260507012526 -1 245 2.0 2.0 0.00 0.51 0.00 10 1017.1
20260507011529 -1 237 3.0 3.0 0.00 0.51 0.00 10 1017.1
20260507005531 -1 205 2.0 3.0 0.00 0.51 0.00 10 1016.9
20260507004538 -1 216 4.0 6.0 0.00 0.53 0.00 10 1016.9
20260507003600 -1 270 2.0 4.0 0.00 0.53 0.00 10 1016.9
20260507002545 -1 231 2.0 4.0 0.00 0.53 0.00 10 1016.8
20260507001545 -1 242 2.0 3.0 0.00 0.53 0.00 10 1016.7
20260507000544 -1 218 3.0 3.0 0.00 0.53 0.00 10 1016.6
20260506235517 47 243 3.0 4.0 0.00 0.53 0.00 79 1016.6
20260506234601 48 254 2.0 2.0 0.00 0.53 0.00 87 1016.6
20260506233524 48 270 3.0 3.0 0.00 0.53 0.00 87 1016.6
20260506232518 48 270 1.0 2.0 0.00 0.53 0.00 87 1016.6
20260506231524 48 257 1.0 2.0 0.00 0.53 0.00 87 1016.6
20260506230550 49 180 2.0 4.0 0.00 0.53 0.00 86 1016.7
20260506225534 49 208 1.0 2.0 0.00 0.53 0.00 86 1016.8
20260506224557 49 239 3.0 5.0 0.00 0.53 0.00 86 1016.7